TimeMST,TemperatureF,Dew PointF,Humidity,Sea Level PressureIn,VisibilityMPH,Wind Direction,Wind SpeedMPH,Gust SpeedMPH,PrecipitationIn,Events,Conditions,WindDirDegrees,DateUTC
12:53 AM,-4.0,-9.0,79,30.30,10.0,ENE,10.4,-,N/A,,Clear,70,2013-01-01 07:53:00
1:53 AM,-0.0,-5.1,79,30.28,10.0,ENE,9.2,-,N/A,,Clear,60,2013-01-01 08:53:00
2:53 AM,-4.0,-8.0,83,30.33,10.0,SE,6.9,-,N/A,,Partly Cloudy,140,2013-01-01 09:53:00
3:53 AM,-11.9,-16.1,82,30.39,10.0,Calm,Calm,-,N/A,,Clear,0,2013-01-01 10:53:00
4:53 AM,-11.9,-16.1,82,30.44,10.0,Calm,Calm,-,N/A,,Clear,0,2013-01-01 11:53:00
5:53 AM,-16.1,-18.9,87,30.49,10.0,NW,5.8,-,N/A,,Clear,320,2013-01-01 12:53:00
6:53 AM,-14.8,-18.4,84,30.12,10.0,Variable,3.5,-,N/A,,Clear,0,2013-01-01 13:53:00
7:53 AM,-16.1,-18.9,87,30.58,10.0,Calm,Calm,-,N/A,,Clear,0,2013-01-01 14:53:00
8:53 AM,-11.0,-15.0,83,30.55,10.0,Calm,Calm,-,N/A,,Clear,0,2013-01-01 15:53:00
9:53 AM,-2.9,-7.1,82,30.56,10.0,Calm,Calm,-,N/A,,Clear,0,2013-01-01 16:53:00
10:53 AM,-0.0,-5.1,79,30.54,10.0,Calm,Calm,-,N/A,,Clear,0,2013-01-01 17:53:00
11:53 AM,3.0,-5.1,69,30.52,10.0,East,4.6,-,N/A,,Clear,100,2013-01-01 18:53:00
12:53 PM,7.0,-2.0,67,30.44,10.0,East,3.5,-,N/A,,Clear,100,2013-01-01 19:53:00
1:53 PM,10.9,1.9,67,30.36,10.0,SW,4.6,-,N/A,,Clear,230,2013-01-01 20:53:00
2:53 PM,14.0,3.0,62,30.34,10.0,SSW,6.9,-,N/A,,Clear,200,2013-01-01 21:53:00
3:53 PM,15.1,3.9,61,30.38,10.0,SSW,4.6,-,N/A,,Clear,200,2013-01-01 22:53:00
4:53 PM,15.1,3.9,61,30.40,10.0,Calm,Calm,-,N/A,,Overcast,0,2013-01-01 23:53:00
5:53 PM,19.0,10.0,68,30.40,10.0,North,10.4,-,N/A,,Overcast,360,2013-01-02 00:53:00
6:53 PM,15.1,7.0,70,30.44,10.0,NNW,15.0,-,N/A,,Clear,340,2013-01-02 01:53:00
7:53 PM,6.1,-0.0,76,30.52,10.0,ENE,6.9,-,N/A,,Clear,60,2013-01-02 02:53:00
8:53 PM,8.1,1.9,76,30.49,10.0,NNE,17.3,-,N/A,,Clear,20,2013-01-02 03:53:00
9:53 PM,10.0,3.0,73,30.43,10.0,North,18.4,-,N/A,,Clear,360,2013-01-02 04:53:00
10:53 PM,3.0,-2.0,80,30.47,10.0,South,4.6,-,N/A,,Clear,170,2013-01-02 05:53:00
11:53 PM,3.0,-2.0,80,30.47,10.0,Calm,Calm,-,N/A,,Clear,0,2013-01-02 06:53:00